Time,TemperatureF,DewpointF,PressureIn,WindDirection,WindDirectionDegrees,WindSpeedMPH,WindSpeedGustMPH,Humidity,HourlyPrecipIn,Conditions,Clouds,dailyrainin,SoftwareType,DateUTC
2013-07-06 00:02:00,53.0,50.0,-100.00,North,1,3.0,-999.0,90,0.00,,,-99.99,,2013-07-06 07:02:00,
2013-07-06 00:12:00,53.0,50.0,-100.00,North,1,3.0,-999.0,90,0.00,,,-99.99,,2013-07-06 07:12:00,
2013-07-06 00:22:00,53.0,50.0,-100.00,North,1,3.0,-999.0,90,0.00,,,-99.99,,2013-07-06 07:22:00,
2013-07-06 00:30:00,52.0,49.0,-100.00,North,354,3.0,-999.0,90,0.00,,,-99.99,,2013-07-06 07:30:00,
2013-07-06 00:52:00,52.0,49.0,-100.00,North,354,3.0,-999.0,90,0.00,,,-99.99,,2013-07-06 07:52:00,
2013-07-06 01:02:00,52.0,49.0,-100.00,North,354,3.0,-999.0,90,0.00,,,-99.99,,2013-07-06 08:02:00,
2013-07-06 01:11:00,52.0,49.0,-100.00,North,354,3.0,-999.0,90,0.00,,,-99.99,,2013-07-06 08:11:00,
2013-07-06 01:21:00,52.0,49.0,-100.00,North,354,3.0,-999.0,90,0.00,,,-99.99,,2013-07-06 08:21:00,
2013-07-06 01:30:00,52.0,49.0,-100.00,North,356,5.0,-999.0,88,0.00,,,-99.99,,2013-07-06 08:30:00,
2013-07-06 01:54:00,52.0,49.0,-100.00,North,356,5.0,-999.0,88,0.00,,,-99.99,,2013-07-06 08:54:00,
2013-07-06 02:02:00,52.0,49.0,-100.00,North,356,5.0,-999.0,88,0.00,,,-99.99,,2013-07-06 09:02:00,
2013-07-06 02:11:00,52.0,49.0,-100.00,North,356,5.0,-999.0,88,0.00,,,-99.99,,2013-07-06 09:11:00,
2013-07-06 02:22:00,52.0,49.0,-100.00,North,356,5.0,-999.0,88,0.00,,,-99.99,,2013-07-06 09:22:00,
2013-07-06 02:30:00,52.0,49.0,-100.00,North,3,4.0,-999.0,89,0.00,,,-99.99,,2013-07-06 09:30:00,
2013-07-06 02:53:00,52.0,49.0,-100.00,North,3,4.0,-999.0,89,0.00,,,-99.99,,2013-07-06 09:53:00,
2013-07-06 03:02:00,52.0,49.0,-100.00,North,3,4.0,-999.0,89,0.00,,,-99.99,,2013-07-06 10:02:00,
2013-07-06 03:11:00,52.0,49.0,-100.00,North,3,4.0,-999.0,89,0.00,,,-99.99,,2013-07-06 10:11:00,
2013-07-06 03:22:00,52.0,49.0,-100.00,North,3,4.0,-999.0,89,0.00,,,-99.99,,2013-07-06 10:22:00,
2013-07-06 03:30:00,52.0,49.0,-100.00,North,6,6.0,-999.0,89,0.00,,,-99.99,,2013-07-06 10:30:00,
2013-07-06 03:53:00,52.0,49.0,-100.00,North,6,6.0,-999.0,89,0.00,,,-99.99,,2013-07-06 10:53:00,
2013-07-06 04:01:00,52.0,49.0,-100.00,North,6,6.0,-999.0,89,0.00,,,-99.99,,2013-07-06 11:01:00,
2013-07-06 04:11:00,52.0,49.0,-100.00,North,6,6.0,-999.0,89,0.00,,,-99.99,,2013-07-06 11:11:00,
2013-07-06 04:21:00,52.0,49.0,-100.00,North,6,6.0,-999.0,89,0.00,,,-99.99,,2013-07-06 11:21:00,
2013-07-06 04:30:00,52.0,49.0,-100.00,North,356,3.0,-999.0,90,0.00,,,-99.99,,2013-07-06 11:30:00,
2013-07-06 04:53:00,52.0,49.0,-100.00,North,356,3.0,-999.0,90,0.00,,,-99.99,,2013-07-06 11:53:00,
2013-07-06 05:01:00,52.0,49.0,-100.00,North,356,3.0,-999.0,90,0.00,,,-99.99,,2013-07-06 12:01:00,
2013-07-06 05:11:00,52.0,49.0,-100.00,North,356,3.0,-999.0,90,0.00,,,-99.99,,2013-07-06 12:11:00,
2013-07-06 05:22:00,52.0,49.0,-100.00,North,356,3.0,-999.0,90,0.00,,,-99.99,,2013-07-06 12:22:00,
2013-07-06 05:30:00,51.0,49.0,-100.00,North,354,2.0,-999.0,90,0.00,,,-99.99,,2013-07-06 12:30:00,
2013-07-06 05:52:00,51.0,49.0,-100.00,North,354,2.0,-999.0,90,0.00,,,-99.99,,2013-07-06 12:52:00,
2013-07-06 06:12:00,51.0,49.0,-100.00,North,354,2.0,-999.0,90,0.00,,,-99.99,,2013-07-06 13:12:00,
2013-07-06 06:22:00,51.0,49.0,-100.00,North,354,2.0,-999.0,90,0.00,,,-99.99,,2013-07-06 13:22:00,
2013-07-06 06:30:00,51.0,48.0,-100.00,North,4,4.0,-999.0,90,0.00,,,-99.99,,2013-07-06 13:30:00,
2013-07-06 07:11:00,51.0,48.0,-100.00,North,4,4.0,-999.0,90,0.00,,,-99.99,,2013-07-06 14:11:00,
2013-07-06 07:22:00,51.0,48.0,-100.00,North,4,4.0,-999.0,90,0.00,,,-99.99,,2013-07-06 14:22:00,
2013-07-06 07:30:00,55.0,50.0,-100.00,North,356,5.0,-999.0,83,0.00,,,-99.99,,2013-07-06 14:30:00,
2013-07-06 07:53:00,55.0,50.0,-100.00,North,356,5.0,-999.0,83,0.00,,,-99.99,,2013-07-06 14:53:00,
2013-07-06 08:02:00,55.0,50.0,-100.00,North,356,5.0,-999.0,83,0.00,,,-99.99,,2013-07-06 15:02:00,
2013-07-06 08:12:00,55.0,50.0,-100.00,North,356,5.0,-999.0,83,0.00,,,-99.99,,2013-07-06 15:12:00,
2013-07-06 08:22:00,55.0,50.0,-100.00,North,356,5.0,-999.0,83,0.00,,,-99.99,,2013-07-06 15:22:00,
2013-07-06 08:53:00,55.0,50.0,-100.00,North,359,4.0,-999.0,82,0.00,,,-99.99,,2013-07-06 15:53:00,
2013-07-06 09:05:00,55.0,50.0,-100.00,North,359,4.0,-999.0,82,0.00,,,-99.99,,2013-07-06 16:05:00,
2013-07-06 09:13:00,55.0,50.0,-100.00,North,359,4.0,-999.0,82,0.00,,,-99.99,,2013-07-06 16:13:00,
2013-07-06 09:22:00,55.0,50.0,-100.00,North,359,4.0,-999.0,82,0.00,,,-99.99,,2013-07-06 16:22:00,
2013-07-06 09:30:00,56.0,50.0,-100.00,North,7,8.0,-999.0,79,0.00,,,-99.99,,2013-07-06 16:30:00,
2013-07-06 10:07:00,56.0,50.0,-100.00,North,7,8.0,-999.0,79,0.00,,,-99.99,,2013-07-06 17:07:00,
2013-07-06 10:25:00,56.0,50.0,-100.00,North,7,8.0,-999.0,79,0.00,,,-99.99,,2013-07-06 17:25:00,
2013-07-06 11:05:00,57.0,50.0,-100.00,North,6,7.0,-999.0,79,0.00,,,-99.99,,2013-07-06 18:05:00,
2013-07-06 12:06:00,58.0,51.0,-100.00,North,8,9.0,-999.0,78,0.00,,,-99.99,,2013-07-06 19:06:00,
2013-07-06 12:25:00,58.0,51.0,-100.00,North,8,9.0,-999.0,78,0.00,,,-99.99,,2013-07-06 19:25:00,
2013-07-06 17:30:00,57.0,53.0,-100.00,North,7,6.0,-999.0,84,0.00,,,-99.99,,2013-07-07 00:30:00,
2013-07-06 18:30:00,57.0,53.0,-100.00,North,6,6.0,-999.0,86,0.00,,,-99.99,,2013-07-07 01:30:00,
2013-07-06 19:05:00,57.0,53.0,-100.00,North,6,6.0,-999.0,86,0.00,,,-99.99,,2013-07-07 02:05:00,
2013-07-06 19:23:00,57.0,53.0,-100.00,North,6,6.0,-999.0,86,0.00,,,-99.99,,2013-07-07 02:23:00,
2013-07-06 19:30:00,56.0,52.0,-100.00,North,358,4.0,-999.0,87,0.00,,,-99.99,,2013-07-07 02:30:00,
2013-07-06 20:00:00,56.0,52.0,-100.00,North,358,4.0,-999.0,87,0.00,,,-99.99,,2013-07-07 03:00:00,
2013-07-06 20:14:00,56.0,52.0,-100.00,North,358,4.0,-999.0,87,0.00,,,-99.99,,2013-07-07 03:14:00,
2013-07-06 20:23:00,56.0,52.0,-100.00,North,358,4.0,-999.0,87,0.00,,,-99.99,,2013-07-07 03:23:00,
2013-07-06 20:30:00,56.0,52.0,-100.00,North,351,3.0,-999.0,87,0.00,,,-99.99,,2013-07-07 03:30:00,
2013-07-06 21:01:00,56.0,52.0,-100.00,North,351,3.0,-999.0,87,0.00,,,-99.99,,2013-07-07 04:01:00,
2013-07-06 21:11:00,56.0,52.0,-100.00,North,351,3.0,-999.0,87,0.00,,,-99.99,,2013-07-07 04:11:00,
2013-07-06 21:21:00,56.0,52.0,-100.00,North,351,3.0,-999.0,87,0.00,,,-99.99,,2013-07-07 04:21:00,
2013-07-06 21:30:00,55.0,52.0,-100.00,North,2,5.0,-999.0,87,0.00,,,-99.99,,2013-07-07 04:30:00,
2013-07-06 21:51:00,55.0,52.0,-100.00,North,2,5.0,-999.0,87,0.00,,,-99.99,,2013-07-07 04:51:00,
2013-07-06 22:01:00,55.0,52.0,-100.00,North,2,5.0,-999.0,87,0.00,,,-99.99,,2013-07-07 05:01:00,
2013-07-06 22:11:00,55.0,52.0,-100.00,North,2,5.0,-999.0,87,0.00,,,-99.99,,2013-07-07 05:11:00,
2013-07-06 22:21:00,55.0,52.0,-100.00,North,2,5.0,-999.0,87,0.00,,,-99.99,,2013-07-07 05:21:00,
2013-07-06 22:30:00,55.0,51.0,-100.00,North,6,6.0,-999.0,88,0.00,,,-99.99,,2013-07-07 05:30:00,
2013-07-06 22:51:00,55.0,51.0,-100.00,North,6,6.0,-999.0,88,0.00,,,-99.99,,2013-07-07 05:51:00,
2013-07-06 23:01:00,55.0,51.0,-100.00,North,6,6.0,-999.0,88,0.00,,,-99.99,,2013-07-07 06:01:00,
2013-07-06 23:11:00,55.0,51.0,-100.00,North,6,6.0,-999.0,88,0.00,,,-99.99,,2013-07-07 06:11:00,
2013-07-06 23:21:00,55.0,51.0,-100.00,North,6,6.0,-999.0,88,0.00,,,-99.99,,2013-07-07 06:21:00,
2013-07-06 23:30:00,55.0,51.0,-100.00,North,3,5.0,-999.0,89,0.00,,,-99.99,,2013-07-07 06:30:00,
2013-07-06 23:52:00,55.0,51.0,-100.00,North,3,5.0,-999.0,89,0.00,,,-99.99,,2013-07-07 06:52:00,